Change the Weather History Date:

Saturday, October 19, 2013

  Actual Average Record
Temperature  
Mean Temperature 51 °F -  
Max Temperature 60 °F 51 °F 75 °F (2007)
Min Temperature 42 °F 37 °F 30 °F (1999)
Degree Days  
Heating Degree Days 14    
Growing Degree Days 1 (Base 50)    
Moisture  
Dew Point 45 °F    
Average Humidity 73    
Maximum Humidity 93    
Minimum Humidity 55    
Precipitation  
Precipitation 0.24 in - - ()
Sea Level Pressure  
Sea Level Pressure 29.77 in    
Wind  
Wind Speed 7 mph ()    
Max Wind Speed 14 mph    
Max Gust Speed 20 mph    
Visibility 14.8 miles    
Events Rain    
Averages and records for this station are not official NWS values.
T = Trace of Precipitation, MM = Missing Value Source: Averaged Metar Reports

Daily Weather History Graph

Daily Weather History Graph

Search for Another Location

Airport or City:

Trip Planner

Search our weather history database for the weather conditions in past years. The results will help you decide how hot, cold, wet, or windy it might be!

Date:

Astronomy

Oct. 19, 2013 Rise Set
Actual Time 7:16 AM EDT 6:02 PM EDT
Civil Twilight 6:46 AM EDT 6:32 PM EDT
Nautical Twilight 6:12 AM EDT 7:06 PM EDT
Astronomical Twilight 5:38 AM EDT 7:40 PM EDT
Moon 6:24 PM EDT (10/19) 7:54 AM EDT (10/19)
Length of Visible Light 11h 45m
Length of Day
10h 45m
Waxing Gibbous, 99% of the Moon is Illuminated
Oct 19
Waxing Gibbous
Oct 26
Last Quarter
Nov 3
New
Nov 10
First Quarter
Nov 17
Full

Hourly Weather History & Observations

Time (EDT) Temp. Windchill Dew Point Humidity Pressure Visibility Wind Dir Wind Speed Gust Speed Precip Events Conditions
12:00 AM 50.0 °F - 41.0 °F 71% 29.83 in 15.0 mi WSW 11.5 mph 17.3 mph N/A   Partly Cloudy
1:00 AM 48.2 °F - 41.0 °F 76% 29.84 in 15.0 mi WSW 10.4 mph - N/A   Partly Cloudy
2:00 AM 48 °F - 41 °F 70% 29.85 in 15 mi WSW 12.7 mph - -  
2:00 AM 48.2 °F - 41.0 °F 76% 29.85 in 15.0 mi WSW 12.7 mph - N/A   Clear
3:00 AM 46.4 °F 41.9 °F 41.0 °F 81% 29.85 in 15.0 mi SW 9.2 mph - N/A   Partly Cloudy
4:00 AM 44.6 °F 40.7 °F 41.0 °F 87% 29.84 in 15.0 mi WSW 6.9 mph - N/A   Clear
5:00 AM 44.6 °F 43.1 °F 41.0 °F 87% 29.86 in 15.0 mi West 3.5 mph - N/A   Clear
6:00 AM 46.4 °F 45.2 °F 41.0 °F 81% 29.86 in 15.0 mi West 3.5 mph - N/A   Partly Cloudy
7:00 AM 46.4 °F - 42.8 °F 87% 29.86 in 15.0 mi Calm Calm - N/A   Partly Cloudy
8:00 AM 44 °F - 42 °F 91% 29.86 in 15 mi NNE 3.5 mph - -   Scattered Clouds
8:00 AM 44.6 °F 43.1 °F 42.8 °F 93% 29.86 in 15.0 mi NNE 3.5 mph - N/A   Mostly Cloudy
9:00 AM 48.2 °F - 44.6 °F 87% 29.87 in 15.0 mi Calm Calm - N/A   Mostly Cloudy
10:00 AM 51.8 °F - 46.4 °F 82% 29.85 in 15.0 mi ESE 2.3 mph - N/A   Overcast
11:00 AM 55.4 °F - 46.4 °F 72% 29.84 in 15.0 mi SSE 6.9 mph - N/A   Overcast
12:00 PM 57.2 °F - 46.4 °F 67% 29.83 in 30.0 mi South 4.6 mph - N/A   Overcast
1:00 PM 59.0 °F - 48.2 °F 67% 29.81 in 15.0 mi SE 6.9 mph - N/A   Overcast
2:00 PM 59 °F - 47 °F 55% 29.79 in 15 mi ESE 6.9 mph - -   Overcast
2:00 PM 59.0 °F - 46.4 °F 63% 29.79 in 15.0 mi ESE 6.9 mph - N/A   Overcast
3:00 PM 60.8 °F - 44.6 °F 55% 29.76 in 15.0 mi ESE 4.6 mph - N/A   Overcast
4:00 PM 59.0 °F - 46.4 °F 63% 29.73 in 15.0 mi SE 10.4 mph - N/A   Overcast
5:00 PM 57.2 °F - 46.4 °F 67% 29.71 in 15.0 mi SE 11.5 mph 17.3 mph N/A   Overcast
5:28 PM 57.2 °F - 46.4 °F 67% 29.71 in 15.0 mi SE 9.2 mph - N/A Rain Light Rain
6:00 PM 57.2 °F - 48.2 °F 72% 29.71 in 15.0 mi SSE 8.1 mph - N/A Rain Light Rain
6:41 PM 57.2 °F - 48.2 °F 72% 29.69 in 15.0 mi ESE 6.9 mph - N/A   Overcast
7:00 PM 55.4 °F - 48.2 °F 77% 29.68 in 15.0 mi SE 8.1 mph - N/A   Overcast
8:00 PM 57 °F - 46 °F 57% 29.65 in 15 mi SE 11.5 mph - -   Partly Cloudy
8:00 PM 57.2 °F - 46.4 °F 67% 29.64 in 15.0 mi SE 10.4 mph - N/A   Overcast
9:00 PM 57.2 °F - 44.6 °F 63% 29.62 in 15.0 mi SSE 12.7 mph 19.6 mph N/A   Overcast
10:00 PM 57.2 °F - 44.6 °F 63% 29.61 in 15.0 mi SSE 13.8 mph - N/A   Overcast
10:27 PM 57.2 °F - 44.6 °F 63% 29.61 in 15.0 mi SSE 13.8 mph - N/A Rain Light Rain Showers
11:00 PM 55.4 °F - 46.4 °F 72% 29.61 in 10.0 mi South 13.8 mph - N/A Rain Light Rain Showers